Regional Weather Roundup
Issued by NWS

Home | Current Version | Previous Version | Text Only | Print | Product List | Glossary Off
Versions: 1 2 3 4 5 6 7 8 9 10 11 12 13 14 15 16 17 18 19 20 21 22 23 24 25 26 27 28 29 30 31 32 33 34 35 36 37 38 39 40 41 42 43 44 45 46 47 48 49 50

000
ASUS44 KMEG 271110
RWRTN
TENNESSEE HOURLY STATE WEATHER ROUNDUP
NATIONAL WEATHER SERVICE MEMPHIS TN
500 AM CST MON FEB 27 2017

TNZ002-004-019-021-049-052-054-088>092-271200-
WEST TENNESSEE

CITY           SKY/WX    TMP DP  RH WIND       PRES   REMARKS
MEMPHIS INTL   CLOUDY    48  45  89 SE13      30.06S
NWS MEMPHIS      N/A     46 N/A N/A MISG        N/A
JACKSON        RAIN      48  45  89 SE10      30.12R
UNION CITY     PTCLDY    46  46 100 SE7       30.08R
PARIS          PTCLDY    45  43  93 SE13      30.10F
HUNTINGDON     CLOUDY    48  45  87 SE10      30.11S
$$

TNZ008-025-027-028-033-062-065-066-271200-
NORTH MIDDLE TENNESSEE

CITY           SKY/WX    TMP DP  RH WIND       PRES   REMARKS
NASHVILLE      CLOUDY    46  38  73 SE3       30.21R
PORTLAND       CLOUDY    46  43  87 SW5       30.19S
CLARKSVILLE    LGT RAIN  45  42  89 SE7       30.18R
SMYRNA         MOCLDY    46  30  53 SE3       30.22S
COOKEVILLE     MOCLDY    43  30  61 CALM      30.21S
GALLATIN       CLOUDY    46  43  87 SE7       30.23S
CROSSVILLE     PTCLDY    40  29  64 N3        30.23R
$$

TNZ061-075-076-078-094-096-097-271200-
SOUTH MIDDLE TENNESSEE

CITY           SKY/WX    TMP DP  RH WIND       PRES   REMARKS
FAYETTEVILLE   MOCLDY    45  30  57 N5        30.18R
TULLAHOMA      CLEAR     39  28  65 CALM      30.20R
WINCHESTER     CLEAR     50  23  34 CALM      30.19R
MCMINNVILLE    CLEAR     45  28  53 N6        30.22R
COLUMBIA       PTCLDY    46  30  53 SE3       30.18R
SHELBYVILLE    CLEAR     46  34  61 CALM      30.22R
$$

TNZ017-018-042-046-047-271200-
NORTHEAST TENNESSEE

CITY           SKY/WX    TMP DP  RH WIND       PRES   REMARKS
TRI CITIES     CLOUDY    33  25  72 CALM      30.29R
ELIZABETHTON   CLOUDY    37  27  65 E3        30.29R
$$

TNZ012-013-036-069-073-074-271200-
CENTRAL EAST TENNESSEE

CITY           SKY/WX    TMP DP  RH WIND       PRES   REMARKS
KNOXVILLE      PTCLDY    38  25  59 E3        30.26R
OAK RIDGE      CLOUDY    38  28  67 CALM      30.27S
GATLINBURG     CLEAR     30  25  80 CALM      30.27R
MORRISTOWN     MOCLDY    37  23  56 E5        30.25S WCI  34
JACKSBORO      CLEAR     32  30  93 CALM      30.30R
$$

TNZ083-085-099-271200-
SOUTHEAST TENNESSEE

CITY           SKY/WX    TMP DP  RH WIND       PRES   REMARKS
CHATTANOOGA    MOCLDY    42  35  76 CALM      30.24S
$$

SKY/WX REPORTED AS FAIR MEANS FEW OR NO CLOUDS BELOW
12 THOUSAND FEET.




USA.gov is the U.S. government's official web portal to all federal, state and local government web resources and services.